Weather in Ust-Unya

Russia / Komi Republic     61°48′26″N   57°52′38″E
В апреле 2022 года жителям России запретили посещать сайт meteo.paraplan.net по решению Генеральной прокуратуры. Аудитория сайта уменьшилась в 10 раз. Владельцы сайта не видят смысла в поддержке погодного сервера в таких условиях. Сайт будет закрыт в октябре.
temp.,
°C
wind,
m/s
gust,
m/s
humid.,
%
clouds,
%
prec.,
mm/h
press.,
hPa
HPBL,
m
4 october, tue
tue400:00+9wsw1399100 1.1 1020125
03:00+9ssw0199100 1.8 102137
06:00+9s2697100 0.2 1023289
09:00+10s4784100 0.2 1024428
12:00+13sw476895 0.0 1025747
15:00+12ssw497483 0.0 1026545
18:00+9s41184100 0.0 1027335
21:00+8s3984100 0.0 1027266
5 october, wed
wed500:00+6sse3885100 0.0 1028206
03:00+6sse398397 0.0 1028207
06:00+5sse3981100 0.0 1027233
09:00+9sse3965100 0.0 1026387
12:00+9s3763100 0.0 1025497
15:00+8s2665100 0.0 1025245
18:00+6s377494 0.0 1025379
21:00+5s3781100 0.1 1024834
6 october, thu
thu600:00+5sse3787100 0.1 1023448
03:00+6sse3882100 0.1 1022378
06:00+6sse3975100 0.0 1021359
09:00+7s3965100 0.0 1020594
12:00+5sse3787100 0.7 1019525
15:00+5sse2592100 2.2 1017786
18:00+5se2593100 0.4 1016344
21:00+5sse1593100 0.6 1014254
7 october, fri
fri700:00+5sse1392100 0.1 1013109
03:00+5sse2593100 0.1 1012262
06:00+5s2695100 0.1 1010402
09:00+6s3793100 0.3 1009518
12:00+6s4892100 0.0 1008654
15:00+6ssw4892100 0.1 1006498
18:00+6s41090100 0.0 1005651
21:00+6ssw4890100 0.4 10031102
8 october, sat
sat800:00+5ssw3696100 1.6 1003815
03:00+5sw3896100 2.6 1003446
06:00+6wnw4892100 1.0 10041124
09:00+6wnw5988100 1.6 1007892
12:00+6wnw598599 0.3 1008907
15:00+6wnw588199 0.8 1010990
18:00+5wnw4983100 0.1 1013656
21:00+5wsw3890100 0.1 1013334